Regional Weather Roundup
Issued by NWS Portland, ME

Current Version | Previous Version | Text Only | Print | Product List | Glossary Off
Versions: 1 2 3 4 5 6 7 8 9 10 11 12 13 14 15 16 17 18 19 20 21 22 23 24 25 26 27 28 29 30 31 32 33 34 35 36 37 38 39 40 41 42 43 44 45 46 47 48 49 50
000 ASUS41 KGYX 210810 RWRGYX WEATHER ROUNDUP FOR MAINE AND NEW HAMPSHIRE NATIONAL WEATHER SERVICE GRAY ME 400 AM EDT TUE AUG 21 2018 MEZ002-005-006-010-012-015-018-020-021-024-026-027-029-210900- MAINE CITY SKY/WX TMP DP RH WIND PRES REMARKS PORTLAND FAIR 57 56 96 CALM 30.16F SANFORD FAIR 48 48 100 CALM 30.16F FOG BAR HARBOR FAIR 52 51 97 CALM 30.17F WISCASSET FAIR 50 50 100 CALM 30.17F ROCKLAND FAIR 50 50 100 CALM 30.16F FRYEBURG FOG 51 51 100 CALM 30.17F VSB 1/4 LEWISTONAUBURN FOG 53 53 100 CALM 30.16F VSB 1/4 AUGUSTA FAIR 56 56 100 CALM 30.16F FOG WATERVILLE FAIR 54 54 100 CALM 30.14F FOG BANGOR FAIR 56 55 97 CALM 30.17S GREENVILLE N/A 56 54 93 SE3 30.15F MILLINOCKET CLOUDY 52 51 97 CALM 30.17S HOULTON FAIR 47 47 100 CALM 30.15S PRESQUE ISLE FOG 46 46 100 CALM 30.16S VSB 3/4 FRENCHVILLE FAIR 57 51 80 SE5 30.15S CARIBOU FAIR 52 50 93 CALM 30.15S $$ NHZ002-005-008-009-011-012-014-210900- NEW HAMPSHIRE CITY SKY/WX TMP DP RH WIND PRES REMARKS PORTSMOUTH MOCLDY 59 58 96 CALM 30.14F ROCHESTER FAIR 54 54 100 CALM 30.15F NASHUA CLOUDY 59 58 96 NW5 30.16 MANCHESTER MOCLDY 60 58 92 CALM 30.14F VSB 1 CONCORD MOCLDY 54 52 93 CALM 30.16F LACONIA FAIR 56 54 93 CALM 30.17F PLYMOUTH CLOUDY 56 55 95 CALM 30.16F FOG BERLIN FOG 52 51 97 CALM 30.18F VSB 1/4 WHITEFIELD CLOUDY 51 50 96 CALM 30.16F FOG JAFFREY FOG 54 54 100 CALM 30.18F VSB 1/4 KEENE FOG N/A N/A N/A CALM 30.16F VSB 1/4 LEBANON FAIR 55 51 86 CALM 30.15F MT WASHINGTON PTCLDY 45 41 87 E9 N/A $$ VTZ005-007-008-210900- VERMONT CITY SKY/WX TMP DP RH WIND PRES REMARKS ST JOHNSBURY N/A 56 56 100 MISG 30.13F MONTPELIER FAIR 55 55 100 CALM 30.18F BURLINGTON FAIR 63 56 78 CALM 30.10S $$ MAZ007-012-024-CTZ003-RIZ002-NYZ038-NYZ072-210900- SOUTHERN NEW ENGLAND AND NY CITY SKY/WX TMP DP RH WIND PRES REMARKS BOSTON MOCLDY 66 62 87 N7 30.14F WORCESTER FOG 58 58 100 N6 30.16F VSB 1/4 NANTUCKET CLOUDY 65 65 100 NE10 30.08F FOG PROVIDENCE CLOUDY 65 61 87 N8 30.13F HARTFORD FAIR 58 57 97 N3 30.13F ALBANY CLOUDY 67 59 75 S12 30.12F NEW YORK CITY FAIR 69 62 78 E7 30.10F $$ ANZ081-ANZ082-ANZ150-NHZ014-MEZ023>029-210900- COASTAL MARINE OBSERVATIONS STATION/POSITION TIME TEMP WIND PRES WAVE AIR SEA DIR/SP/G HT/PER (UTC) (F) (DEG/KT/KT) (MB) (FT/S) MOUNT DESERT ROC 0800 58 340/ 8/ 8 1021.2F JEFFREYS LEDGE 0736 69 N/A 4/ 8 $$ .............KEY.............. WCI - WIND CHILL TC - TEMPERATURE IN CELSIUS VSB - VISIBILITY IN MILES HX - HEAT INDEX FAIR- INDICATES FEW OR NO CLOUDS BELOW 12,000 FT, WITH NO SIGNIFICANT WEATHER AND/OR OBSTRUCTIONS TO VISIBILITY.

USA.gov is the U.S. government's official web portal to all federal, state and local government web resources and services.